Terminal Aerodrome Forecast
Issued by NWS

Home | Current Version | Previous Version | Text Only | Print | Product List | Glossary On
Versions: 1 2 3 4 5 6 7 8 9 10 11 12 13
268
FTUS45 KRIW 230209 AAA
TAFRKS
TAF AMD
KRKS 230209Z 2302/2324 06014G24KT P6SM -SHRA SCT025 OVC045
     FM230600 07008KT P6SM SCT050
     FM230900 VRB04KT P6SM VCFG FEW009
     FM231400 25008KT P6SM SCT050
     FM231900 30012KT P6SM FEW060=

USA.gov is the U.S. government's official web portal to all federal, state and local government web resources and services.